When you browse on this site, cookies collect data to enhance your experience and personalize the content and advertising you see.
Visit our Privacy Policy to learn more. By continuing to use the site, you agree to this use of cookies and data.
  • In United Kingdom
  • List of Countries
  • For 7 days
  • Water Temperature
  • Weather Map
  • Weather Widgets
  • user-avatar
    Login

    Hourly Weather Ibigs

    Today, 22 August, Thursday

    Time Temperature Precipitation Wind Pressure Humidity
    00:00 +21°C° 0 mm 1 mps 650 mmHg 62%
    01:00 +20°C° 0 mm 1 mps 649 mmHg 65%
    02:00 +20°C° 0 mm 1 mps 649 mmHg 66%
    03:00 +20°C° 0 mm 1 mps 649 mmHg 67%
    04:00 +18°C° 0 mm 2 mps 649 mmHg 68%
    05:00 +20°C° 0 mm 1 mps 649 mmHg 66%
    06:00 +21°C° 0 mm 1 mps 650 mmHg 65%
    07:00 +21°C° 0 mm 1 mps 650 mmHg 63%
    08:00 +24°C° 0 mm 2 mps 651 mmHg 55%
    09:00 +26°C° 0 mm 2 mps 651 mmHg 48%
    10:00 +28°C° 0 mm 3 mps 652 mmHg 40%
    11:00 +29°C° 0 mm 3 mps 651 mmHg 36%
    12:00 +30°C° 0 mm 3 mps 651 mmHg 32%
    13:00 +33°C° 0 mm 3 mps 650 mmHg 28%
    14:00 +33°C° 0 mm 3 mps 650 mmHg 28%
    15:00 +31°C° 0 mm 3 mps 649 mmHg 27%
    16:00 +31°C° 0 mm 2 mps 649 mmHg 27%
    17:00 +29°C° 0 mm 2 mps 649 mmHg 33%
    18:00 +26°C° 0 mm 2 mps 648 mmHg 40%
    19:00 +23°C° 0 mm 2 mps 648 mmHg 46%
    20:00 +23°C° 0 mm 2 mps 649 mmHg 48%
    21:00 +21°C° 0 mm 2 mps 649 mmHg 51%
    22:00 +21°C° 0 mm 2 mps 650 mmHg 53%
    23:00 +21°C° 0 mm 2 mps 650 mmHg 56%

    Tomorrow, 23 August, Friday

    Time Temperature Precipitation Wind Pressure Humidity
    00:00 +20°C° 0 mm 2 mps 650 mmHg 59%
    01:00 +21°C° 0 mm 1 mps 649 mmHg 62%
    02:00 +21°C° 0 mm 1 mps 649 mmHg 65%
    03:00 +20°C° 0 mm 1 mps 649 mmHg 67%
    04:00 +20°C° 0 mm 1 mps 649 mmHg 69%
    05:00 +20°C° 0 mm 1 mps 649 mmHg 68%
    06:00 +21°C° 0 mm 1 mps 649 mmHg 66%
    07:00 +22°C° 0 mm 1 mps 650 mmHg 64%
    08:00 +24°C° 0 mm 2 mps 650 mmHg 56%
    09:00 +26°C° 0 mm 3 mps 651 mmHg 48%
    10:00 +29°C° 0 mm 3 mps 652 mmHg 40%
    11:00 +30°C° 0 mm 4 mps 651 mmHg 37%
    12:00 +32°C° 0 mm 4 mps 650 mmHg 34%
    13:00 +33°C° 0 mm 4 mps 650 mmHg 31%
    14:00 +32°C° 0 mm 4 mps 649 mmHg 32%
    15:00 +32°C° 0 mm 4 mps 649 mmHg 34%
    16:00 +32°C° 0 mm 4 mps 648 mmHg 35%
    17:00 +29°C° 0 mm 3 mps 648 mmHg 42%
    18:00 +27°C° 0 mm 3 mps 648 mmHg 49%
    19:00 +25°C° 0 mm 2 mps 649 mmHg 56%
    20:00 +24°C° 0 mm 2 mps 649 mmHg 58%
    21:00 +23°C° 0 mm 2 mps 649 mmHg 60%
    22:00 +23°C° 0 mm 2 mps 650 mmHg 62%
    23:00 +23°C° 0 mm 1 mps 650 mmHg 62%

    Day after tomorrow, 24 August, Saturday

    Time Temperature Precipitation Wind Pressure Humidity
    00:00 +23°C° 0 mm 1 mps 650 mmHg 63%
    01:00 +23°C° 0 mm 1 mps 649 mmHg 63%
    02:00 +22°C° 0 mm 1 mps 649 mmHg 65%
    03:00 +21°C° 0 mm 1 mps 649 mmHg 67%
    04:00 +20°C° 0 mm 2 mps 649 mmHg 69%
    05:00 +22°C° 0 mm 1 mps 649 mmHg 67%
    06:00 +22°C° 0 mm 1 mps 649 mmHg 65%
    07:00 +23°C° 0 mm 1 mps 650 mmHg 63%
    08:00 +25°C° 0 mm 2 mps 650 mmHg 57%
    09:00 +26°C° 0 mm 3 mps 651 mmHg 51%
    10:00 +28°C° 0 mm 3 mps 652 mmHg 45%
    11:00 +29°C° 0.1 mm 3 mps 651 mmHg 43%
    12:00 +30°C° 0.1 mm 3 mps 650 mmHg 41%
    13:00 +32°C° 0.1 mm 4 mps 650 mmHg 39%
    14:00 +31°C° 0.1 mm 3 mps 649 mmHg 40%
    15:00 +30°C° 0.1 mm 3 mps 648 mmHg 41%
    16:00 +30°C° 0.1 mm 3 mps 648 mmHg 43%
    17:00 +28°C° 0.1 mm 3 mps 648 mmHg 48%
    18:00 +26°C° 0.1 mm 2 mps 648 mmHg 53%
    19:00 +24°C° 0.1 mm 2 mps 648 mmHg 58%
    20:00 +24°C° 0 mm 2 mps 649 mmHg 60%
    21:00 +24°C° 0 mm 2 mps 649 mmHg 62%
    22:00 +23°C° 0 mm 1 mps 650 mmHg 63%
    23:00 +23°C° 0 mm 1 mps 650 mmHg 65%

    25 August, Sunday

    Time Temperature Precipitation Wind Pressure Humidity
    00:00 +23°C° 0 mm 1 mps 649 mmHg 67%
    01:00 +20°C° 0 mm 0 mps 649 mmHg 68%
    02:00 +22°C° 0 mm 1 mps 649 mmHg 71%
    03:00 +21°C° 0 mm 1 mps 648 mmHg 73%
    04:00 +21°C° 0 mm 1 mps 648 mmHg 75%
    05:00 +21°C° 0 mm 1 mps 648 mmHg 73%
    06:00 +22°C° 0 mm 1 mps 649 mmHg 71%
    07:00 +22°C° 0 mm 1 mps 649 mmHg 69%
    08:00 +24°C° 0 mm 2 mps 650 mmHg 60%
    09:00 +26°C° 0 mm 2 mps 650 mmHg 51%
    10:00 +29°C° 0 mm 3 mps 651 mmHg 43%
    11:00 +30°C° 0.1 mm 3 mps 650 mmHg 40%
    12:00 +32°C° 0.1 mm 4 mps 650 mmHg 37%
    13:00 +33°C° 0.1 mm 4 mps 650 mmHg 35%
    14:00 +31°C° 0.1 mm 3 mps 649 mmHg 36%
    15:00 +30°C° 0.1 mm 3 mps 648 mmHg 38%
    16:00 +30°C° 0.1 mm 3 mps 648 mmHg 39%
    17:00 +28°C° 0 mm 3 mps 648 mmHg 45%
    18:00 +26°C° 0 mm 2 mps 648 mmHg 50%
    19:00 +24°C° 0 mm 2 mps 648 mmHg 55%
    20:00 +24°C° 0 mm 2 mps 648 mmHg 56%
    21:00 +23°C° 0 mm 2 mps 649 mmHg 57%
    22:00 +23°C° 0 mm 2 mps 649 mmHg 58%
    23:00 +23°C° 0 mm 1 mps 649 mmHg 60%

    26 August, Monday

    Time Temperature Precipitation Wind Pressure Humidity
    00:00 +23°C° 0 mm 1 mps 649 mmHg 62%
    01:00 +22°C° 0 mm 1 mps 648 mmHg 64%
    02:00 +22°C° 0 mm 1 mps 648 mmHg 68%
    03:00 +21°C° 0 mm 1 mps 648 mmHg 71%
    04:00 +21°C° 0 mm 1 mps 648 mmHg 74%
    05:00 +21°C° 0 mm 1 mps 648 mmHg 72%
    06:00 +22°C° 0 mm 1 mps 648 mmHg 71%
    07:00 +22°C° 0 mm 1 mps 649 mmHg 69%
    08:00 +24°C° 0 mm 1 mps 650 mmHg 62%
    09:00 +26°C° 0 mm 2 mps 650 mmHg 56%
    10:00 +28°C° 0 mm 3 mps 651 mmHg 49%
    11:00 +28°C° 0.3 mm 3 mps 650 mmHg 48%
    12:00 +29°C° 0.3 mm 3 mps 650 mmHg 46%
    13:00 +30°C° 0.3 mm 4 mps 649 mmHg 45%
    14:00 +29°C° 0.2 mm 3 mps 648 mmHg 47%
    15:00 +28°C° 0.2 mm 3 mps 648 mmHg 50%
    16:00 +27°C° 0.2 mm 3 mps 647 mmHg 53%
    17:00 +26°C° 0 mm 2 mps 647 mmHg 56%
    18:00 +25°C° 0 mm 2 mps 648 mmHg 60%
    19:00 +23°C° 0 mm 2 mps 648 mmHg 63%
    20:00 +23°C° 0 mm 1 mps 648 mmHg 63%
    21:00 +23°C° 0 mm 1 mps 649 mmHg 64%
    22:00 +22°C° 0 mm 1 mps 649 mmHg 64%
    23:00 +22°C° 0.1 mm 1 mps 649 mmHg 66%

    27 August, Tuesday

    Time Temperature Precipitation Wind Pressure Humidity
    00:00 +22°C° 0.1 mm 1 mps 649 mmHg 68%
    01:00 +22°C° 0.1 mm 1 mps 649 mmHg 70%
    02:00 +21°C° 0 mm 1 mps 648 mmHg 72%
    03:00 +19°C° 0 mm 0 mps 648 mmHg 74%
    04:00 +19°C° 0 mm 0 mps 648 mmHg 76%
    05:00 +19°C° 0 mm 0 mps 648 mmHg 74%
    06:00 +19°C° 0 mm 0 mps 649 mmHg 73%
    07:00 +22°C° 0 mm 1 mps 649 mmHg 71%
    08:00 +24°C° 0.2 mm 1 mps 650 mmHg 65%
    09:00 +25°C° 0.2 mm 2 mps 650 mmHg 59%
    10:00 +27°C° 0.2 mm 3 mps 651 mmHg 53%
    11:00 +28°C° 0.3 mm 3 mps 650 mmHg 50%
    12:00 +29°C° 0.3 mm 3 mps 650 mmHg 47%
    13:00 +30°C° 0.3 mm 3 mps 649 mmHg 44%
    14:00 +30°C° 0.2 mm 3 mps 648 mmHg 44%
    15:00 +30°C° 0.2 mm 3 mps 648 mmHg 43%
    16:00 +30°C° 0.2 mm 3 mps 648 mmHg 43%
    17:00 +28°C° 0.1 mm 2 mps 648 mmHg 49%
    18:00 +26°C° 0.1 mm 2 mps 648 mmHg 55%
    19:00 +24°C° 0.1 mm 1 mps 648 mmHg 61%
    20:00 +23°C° 0.1 mm 1 mps 648 mmHg 64%
    21:00 +23°C° 0.1 mm 1 mps 649 mmHg 67%
    22:00 +22°C° 0.1 mm 1 mps 649 mmHg 70%
    23:00 +22°C° 0.4 mm 1 mps 649 mmHg 74%
    Show more